Location: Assche-ter-Heiden
(50.9174°N, 4.1574°E)
Time: 00:23:08
(UTC+00:00)

STARLINK-68 - Pass Details

Date: 20 January 2020
Orbit: 528 x 531 km, 53.0° (Epoch: 23 February)

Event Time Altitude Azimuth Distance (km) Brightness Sun altitude
Exits shadow 06:29:12 - 235° (SW) 2,648 6.8 -10.3°
Reaches altitude 10° 06:31:23 10° 232° (SW) 1,774 5.9 -9.9°
Maximum altitude 06:35:21 59° 152° (SSE) 617 4.1 -9.4°
Drops below altitude 10° 06:39:19 10° 73° (ENE) 1,783 7.1 -8.8°
Sets 06:41:34 0° 70° (ENE) 2,676 8.0 -8.4°
